SCP
0 0 0 0 0 0 0 0 0 0 0 0 0 0 0 0 0 0 0 0 0 0 0 0 0 0 0 0 0 0 0 0 0 0 0 1 1 1
0 0 0 0 0 0 0 0 0 0 0 0 0 0 0 0 0 0 0 0 0 0 0 0 0 0 0 0 0 0 0 0 0 0 0 1 1 1
0 0 0 0 0 0 0 0 0 0 0 0 0 0 0 0 0 0 0 0 0 0 0 0 0 0 0 0 0 0 0 0 0 0 0 0 1 1
0 0 0 0 0 0 0 0 0 0 0 0 0 0 0 0 0 0 0 0 0 0 0 0 0 0 0 0 0 0 0 0 0 0 0 0 0 0
0 0 0 0 0 0 0 0 0 0 0 0 0 0 0 0 0 0 0 0 0 0 0 0 0 0 0 0 0 0 0 0 0 0 0 0 0 0
0 0 0 0 0 0 0 0 0 0 0 0 0 0 0 0 0 0 0 0 0 0 0 0 0 0 0 0 0 0 0 0 0 0 0 0 0 0
0 0 0 0 0 0 0 0 0 0 0 0 0 0 0 0 0 0 0 0 0 0 0 0 0 0 0 0 0 0 0 0 0 0 0 0 0 0
0 0 0 0 0 0 0 0 0 0 0 0 0 0 0 0 0 0 0 0 0 0 0 0 0 0 0 0 0 0 0 0 0 0 0 0 0 0
0 0 0 0 0 0 0 0 0 0 0 0 0 0 0 0 0 0 0 0 0 0 0 0 0 0 0 0 0 0 0 0 0 0 0 0 0 0
0 0 0 0 0 0 0 0 0 0 0 0 0 0 0 0 0 0 0 0 0 0 0 0 0 0 0 0 0 0 0 0 0 0 0 0 0 0
0 0 0 0 0 0 0 0 0 0 0 0 0 0 0 0 0 0 0 0 0 0 0 0 0 0 0 0 0 0 0 0 0 0 0 0 0 0
0 0 0 0 0 0 0 0 0 0 0 0 0 0 0 0 0 0 0 0 0 0 0 0 0 0 0 0 0 0 0 0 0 0 0 0 0 0
0 0 0 0 0 0 0 0 0 0 0 0 0 0 0 0 0 0 0 0 0 0 0 0 0 0 0 0 0 0 0 0 0 0 0 0 0 0
0 0 0 0 0 0 0 0 0 0 0 0 0 0 0 0 0 0 0 0 0 0 0 0 0 0 0 0 0 0 0 0 0 0 0 0 0 0
0 0 0 0 0 0 0 0 0 0 0 0 0 0 0 0 0 0 0 0 0 0 0 0 0 0 0 0 0 0 0 0 0 0 0 0 0 0
0 0 0 0 0 0 0 0 0 0 0 0 0 0 0 0 0 0 0 0 0 0 0 0 0 0 0 0 0 0 0 0 0 0 0 0 0 0
0 0 0 0 0 0 0 0 0 0 0 0 0 0 0 0 0 0 0 0 0 0 0 0 0 0 0 0 0 0 0 0 0 0 0 0 0 0
0 0 0 0 0 0 0 0 0 0 0 0 0 0 0 0 0 0 0 0 0 0 0 0 0 0 0 0 0 0 0 0 0 0 0 0 0 0
0 0 0 0 0 0 0 0 0 0 0 0 0 0 0 0 0 0 0 0 0 0 0 0 0 0 0 0 0 0 0 0 0 0 0 0 0 0
0 0 0 0 0 0 0 0 0 0 0 0 0 0 0 0 0 0 0 0 0 0 0 0 0 0 0 0 0 0 0 0 0 0 0 0 0 0
0 0 0 0 0 0 0 0 0 0 0 0 0 0 0 0 0 0 0 0 0 0 0 0 0 0 0 0 0 0 0 0 0 0 0 0 0 0
0 0 0 0 0 0 0 0 0 0 0 0 0 0 0 0 0 0 0 0 0 0 0 0 0 0 0 0 0 0 0 0 0 0 0 0 0 0
0 0 0 0 0 0 0 0 0 0 0 0 0 0 0 0 0 0 0 0 0 0 0 0 0 0 0 0 0 0 0 0 0 0 0 0 0 0
Wind_Speed
4 4 4 3 3 3 4 4 4 4 5 4 3 3 3 4 5 5 6 9 11 12 13 13 13 13 12 13 14 14 13 13 13 14 14 15 16 15
2 3 4 3 3 3 3 3 4 5 5 3 3 3 3 3 6 5 6 9 10 11 12 13 13 13 13 13 13 14 13 13 14 15 16 16 16 16
1 3 3 3 2 2 3 3 3 4 6 4 2 2 3 4 4 4 5 6 6 11 13 13 13 13 14 14 14 14 14 14 15 15 16 16 16 17
2 2 2 2 3 3 3 3 4 4 5 6 3 3 4 4 4 5 5 5 6 9 12 13 14 14 14 14 14 14 14 14 14 15 16 17 17 17
2 2 2 2 2 2 2 3 3 3 4 5 5 3 3 3 4 4 5 5 5 7 10 12 13 14 14 15 15 15 14 14 14 15 15 15 16 17
1 1 1 1 2 2 2 2 2 3 4 4 4 4 3 3 3 4 5 4 5 5 7 8 11 13 14 15 15 14 14 14 15 15 15 14 14 15
0 0 1 1 1 2 2 2 2 3 4 4 5 4 4 3 4 3 6 5 6 4 4 5 6 6 8 11 12 14 14 15 15 16 15 15 14 15
1 1 1 1 2 3 3 4 4 4 4 4 5 6 6 5 5 5 5 6 6 3 4 6 5 7 7 6 11 14 15 15 15 16 16 15 15 15
1 1 2 2 3 2 3 4 4 5 6 5 6 6 6 6 6 7 6 7 8 5 4 7 5 7 6 7 13 15 15 15 15 16 16 16 15 15
1 2 2 2 2 2 2 2 3 3 4 4 5 6 6 6 6 7 8 8 7 5 4 7 5 6 6 6 11 14 14 15 15 16 16 15 15 15
2 2 2 2 4 4 3 3 4 4 5 6 7 7 8 8 7 5 4 5 7 5 3 4 4 5 6 6 7 12 13 14 15 16 16 15 14 13
2 2 4 4 5 5 3 2 4 4 5 5 6 7 6 6 6 4 5 5 5 5 2 3 4 3 5 4 4 5 7 11 13 14 14 14 12 8
2 2 3 6 6 6 5 3 4 5 4 5 5 5 4 4 4 4 5 5 6 6 4 3 3 3 4 5 4 5 5 5 6 8 10 11 11 10
2 3 3 6 6 6 5 5 6 5 3 3 4 4 4 5 5 5 6 6 6 8 7 5 4 5 5 6 6 4 4 4 4 5 5 7 9 10
2 4 5 6 6 4 5 6 5 3 3 3 4 5 5 5 5 5 5 6 6 7 6 6 5 5 5 6 5 5 5 4 4 4 4 4 5 5
3 4 5 5 4 4 4 4 3 2 3 3 4 5 5 5 4 5 5 5 5 6 5 5 6 6 6 6 6 6 5 4 3 4 4 4 4 4
3 2 2 2 3 3 3 3 2 3 3 3 4 5 5 5 5 5 5 5 5 6 6 4 4 5 7 6 5 6 5 4 4 4 4 4 5 5
3 2 2 3 3 3 4 4 3 4 4 4 4 5 5 5 6 5 4 5 6 6 5 5 4 4 3 4 6 5 5 4 3 3 3 4 5 4
2 2 3 3 3 3 3 4 4 5 4 4 5 5 5 5 5 5 5 5 5 5 5 4 4 3 5 6 4 5 4 4 3 4 4 3 4 4
2 2 3 3 3 4 4 4 4 5 5 5 5 5 5 5 5 5 5 6 6 6 5 4 4 4 5 6 5 4 5 4 4 4 3 2 1 2
2 3 3 3 4 4 4 4 4 5 5 5 5 5 5 5 5 5 5 8 7 5 6 6 5 7 4 2 3 4 3 4 4 3 3 2 1 2
3 3 3 3 4 4 4 4 4 5 5 5 5 5 5 5 5 6 6 6 6 6 6 5 4 3 2 3 4 4 3 2 2 2 2 3 3 4
3 3 3 4 4 4 4 5 5 5 5 6 6 5 5 5 5 5 6 6 6 6 5 5 4 3 3 3 3 3 3 2 0 1 1 2 1 0
Wind_Direction
218 220 223 222 215 215 208 201 207 235 247 229 228 226 224 232 251 249 245 250 253 254 257 259 260 259 258 257 259 258 257 257 251 252 249 245 244 246
220 216 226 225 215 215 218 220 218 228 248 232 232 241 236 252 260 251 248 258 254 254 256 256 257 258 257 257 257 255 253 253 251 251 251 250 246 244
238 224 232 221 217 216 219 221 230 233 252 260 244 250 242 253 268 258 256 246 250 254 256 256 257 258 258 256 256 255 252 250 249 248 251 251 250 244
230 230 244 229 221 221 223 228 231 229 241 262 263 250 245 248 256 263 267 261 253 257 257 258 258 259 259 258 257 255 252 251 248 246 248 248 248 245
221 223 239 221 231 231 235 238 242 250 240 251 265 258 255 257 264 270 270 265 264 263 260 257 257 259 259 258 257 255 253 252 249 245 245 245 245 245
219 214 248 233 236 245 246 247 254 259 255 258 268 269 264 258 251 263 276 267 264 266 261 261 262 262 259 258 256 253 250 250 250 245 244 243 241 242
11 337 296 305 288 275 278 270 263 259 261 265 268 274 268 267 260 257 269 279 265 245 253 256 260 257 255 256 255 251 251 252 252 246 242 240 240 240
318 339 321 317 324 312 303 297 285 273 272 269 271 274 280 281 279 274 274 278 275 237 254 267 254 257 254 248 254 255 254 253 252 247 242 239 237 237
333 328 324 335 336 309 319 318 307 299 287 274 274 279 285 288 286 281 273 272 272 274 259 267 254 256 255 256 260 258 255 252 254 250 243 238 235 235
330 322 317 319 326 326 310 297 291 296 296 285 275 279 284 287 278 272 274 279 278 272 249 265 264 262 270 260 259 256 256 253 255 253 245 238 234 233
333 327 314 308 325 329 312 302 305 308 319 313 304 300 299 301 302 295 289 285 285 280 250 255 271 281 273 261 259 259 259 256 257 257 246 238 233 227
332 328 330 323 323 324 306 300 304 310 318 317 311 307 300 300 303 285 276 273 282 278 248 253 275 295 286 260 252 256 258 261 262 260 249 236 229 218
315 318 320 326 323 327 323 303 301 309 308 306 303 301 301 297 289 280 273 269 269 268 263 259 265 265 263 285 277 260 255 260 255 253 247 236 228 214
308 309 315 329 327 331 326 323 325 325 311 308 306 307 306 303 295 288 281 271 263 267 265 256 254 254 266 275 279 275 265 260 246 246 244 236 225 218
318 316 320 331 334 334 337 334 332 323 312 307 301 296 293 290 292 293 290 285 279 275 264 256 256 255 255 261 270 273 279 272 240 237 237 231 220 208
328 328 334 341 345 338 335 334 331 315 307 293 291 291 292 293 294 297 296 300 296 292 276 257 252 248 255 261 259 266 262 257 253 245 242 237 225 211
326 329 333 334 337 332 324 321 314 311 309 300 297 298 298 298 298 299 296 295 287 292 300 294 275 258 247 246 255 257 261 261 249 236 237 240 229 215
340 331 325 325 322 322 318 317 317 313 306 300 297 295 296 297 298 299 294 289 286 288 292 295 303 307 295 257 232 246 252 255 255 240 236 233 232 220
346 327 316 314 313 313 312 309 309 311 303 291 288 289 290 291 291 294 295 293 289 286 287 290 284 275 281 285 268 227 241 259 254 240 231 226 226 217
332 314 308 308 307 307 308 309 306 307 303 293 288 285 285 287 288 288 290 290 289 290 291 290 276 267 261 266 275 274 240 236 238 236 232 235 245 214
311 307 305 305 303 302 302 301 300 296 299 296 287 285 286 287 285 284 285 291 289 281 283 284 280 290 288 280 275 279 275 242 235 230 207 196 204 187
298 299 300 300 301 300 299 297 297 297 298 298 290 287 285 282 284 286 286 286 281 278 280 288 294 297 285 268 278 281 290 303 301 267 208 192 186 192
289 292 295 297 298 300 298 298 297 296 294 294 296 289 287 287 285 282 282 282 281 283 288 291 291 284 275 269 278 282 282 286 301 32 354 353 359 273